Location: North Runcton
(52.7000°N, 0.4333°E)
Time: 19:31:48
(UTC+00:00)

SAR-Lupe-2 - Pass Details

Date: 19 May 2025
Orbit: 478 x 487 km, 98.1° (Epoch: 16 May)

Event Time Altitude Azimuth Distance (km) Brightness Sun altitude
Exits shadow 20:57:49 - 171° (S) 1,917 6.1 -7.8°
Reaches altitude 10° 20:58:27 10° 172° (S) 1,653 5.8 -7.9°
Maximum altitude 21:01:59 70° 256° (WSW) 517 3.8 -8.3°
Drops below altitude 10° 21:05:34 10° 341° (NNW) 1,670 7.6 -8.6°
Sets 21:07:39 0° 344° (NNW) 2,556 8.6 -8.8°
